RYR6CM GCLP-EIDW

Flight info

Callsign RYR6CM
Flight time 3h 57m
Altitude 36000
Route VASTO DCT NIDEB DCT TIGGI DCT IBIDO DCT XERES DCT ADVAT/M076F360 T290 GELPO DCT JABEX/N0436F360 DCT BIBLA DCT SOVIX DCT CML DCT SUTEX SUTEX4L
Aircraft B738/M-SDE2E3FGHIRWXY/LB1

Departure

Time 2026-05-04 22:22
Airport Gran Canaria Airport (GCLP)

Arrival

Time 2026-05-05 02:19
Airport Dublin Airport (EIDW)
Time Latitude Longitude Altitude Speed Heading
2026-05-04 21:11 27.93730 -15.38871 88 ft 0 kts 291°
2026-05-04 21:12 27.93772 -15.38852 84 ft 0 kts 291°
2026-05-04 21:58 27.93765 -15.38831 87 ft 4 kts 291°
2026-05-04 21:59 27.93757 -15.38809 83 ft 3 kts 290°
2026-05-04 21:59 27.93754 -15.38784 86 ft 4 kts 248°
2026-05-04 21:59 27.93767 -15.38764 87 ft 3 kts 215°
2026-05-04 21:59 27.93788 -15.38750 84 ft 3 kts 202°
2026-05-04 22:00 27.93792 -15.38748 82 ft 0 kts 201°
2026-05-04 22:13 27.93787 -15.38751 82 ft 3 kts 200°
2026-05-04 22:13 27.93753 -15.38766 82 ft 8 kts 202°
2026-05-04 22:13 27.93694 -15.38791 82 ft 9 kts 201°
2026-05-04 22:14 27.93634 -15.38817 86 ft 9 kts 201°
2026-05-04 22:14 27.93575 -15.38843 86 ft 9 kts 201°
2026-05-04 22:14 27.93518 -15.38868 84 ft 9 kts 201°
2026-05-04 22:14 27.93460 -15.38863 81 ft 9 kts 147°
2026-05-04 22:15 27.93425 -15.38796 72 ft 11 kts 112°
2026-05-04 22:15 27.93358 -15.38759 73 ft 13 kts 198°
2026-05-04 22:15 27.93277 -15.38810 71 ft 13 kts 204°
2026-05-04 22:15 27.93194 -15.38847 73 ft 13 kts 202°
2026-05-04 22:16 27.93115 -15.38890 68 ft 12 kts 201°
2026-05-04 22:16 27.93035 -15.38925 76 ft 12 kts 201°
2026-05-04 22:16 27.92957 -15.38960 78 ft 12 kts 201°
2026-05-04 22:16 27.92883 -15.38993 82 ft 12 kts 202°
2026-05-04 22:17 27.92809 -15.39025 83 ft 11 kts 200°
2026-05-04 22:17 27.92737 -15.39056 87 ft 11 kts 201°
2026-05-04 22:17 27.92665 -15.39088 88 ft 11 kts 201°
2026-05-04 22:17 27.92588 -15.39121 90 ft 12 kts 201°
2026-05-04 22:18 27.92506 -15.39157 93 ft 13 kts 201°
2026-05-04 22:18 27.92419 -15.39198 94 ft 14 kts 201°
2026-05-04 22:18 27.92329 -15.39237 98 ft 14 kts 202°
2026-05-04 22:18 27.92237 -15.39278 98 ft 15 kts 201°
2026-05-04 22:19 27.92122 -15.39310 94 ft 20 kts 177°
2026-05-04 22:19 27.92027 -15.39301 90 ft 9 kts 174°
2026-05-04 22:19 27.92019 -15.39300 90 ft 0 kts 174°
2026-05-04 22:20 27.92012 -15.39300 90 ft 3 kts 175°
2026-05-04 22:20 27.91961 -15.39293 88 ft 13 kts 166°
2026-05-04 22:21 27.91928 -15.39220 88 ft 9 kts 47°
2026-05-04 22:21 27.91951 -15.39205 86 ft 0 kts 24°
2026-05-04 22:21 27.91952 -15.39204 84 ft 2 kts 24°
2026-05-04 22:21 27.92201 -15.39095 83 ft 76 kts 21°
2026-05-04 22:22 27.92917 -15.38777 57 ft 142 kts 21°
2026-05-04 22:22 27.93972 -15.38307 305 ft 174 kts 22°
2026-05-04 22:22 27.95108 -15.37718 992 ft 187 kts 27°
2026-05-04 22:22 27.96283 -15.37003 1663 ft 199 kts 22°
2026-05-04 22:23 27.97694 -15.36494 1889 ft 226 kts 18°
2026-05-04 22:23 27.99277 -15.35901 2192 ft 251 kts 20°
2026-05-04 22:23 28.00933 -15.35235 2914 ft 259 kts 20°
2026-05-04 22:23 28.02638 -15.34527 3629 ft 263 kts 21°
2026-05-04 22:24 28.04349 -15.33807 3975 ft 263 kts 21°
2026-05-04 22:24 28.06076 -15.33066 4017 ft 267 kts 21°
2026-05-04 22:24 28.07811 -15.32312 4026 ft 267 kts 21°
2026-05-04 22:24 28.09538 -15.31559 4033 ft 266 kts 21°
2026-05-04 22:25 28.11247 -15.30815 4286 ft 262 kts 21°
2026-05-04 22:25 28.12964 -15.30069 4593 ft 266 kts 21°
2026-05-04 22:25 28.14699 -15.29342 4913 ft 271 kts 17°
2026-05-04 22:25 28.16531 -15.28782 5637 ft 275 kts 14°
2026-05-04 22:26 28.18392 -15.28269 6508 ft 276 kts 14°
2026-05-04 22:26 28.20184 -15.27478 7310 ft 280 kts 30°
2026-05-04 22:26 28.21842 -15.26284 8053 ft 285 kts 33°
2026-05-04 22:26 28.23513 -15.25025 8735 ft 291 kts 33°
2026-05-04 22:27 28.25216 -15.23743 9457 ft 296 kts 33°
2026-05-04 22:27 28.26948 -15.22452 10148 ft 301 kts 32°
2026-05-04 22:27 28.28742 -15.21129 10550 ft 318 kts 32°
2026-05-04 22:27 28.30647 -15.19735 10726 ft 341 kts 32°
2026-05-04 22:28 28.32690 -15.18246 11122 ft 355 kts 31°
2026-05-04 22:28 28.34789 -15.16723 11695 ft 361 kts 31°
2026-05-04 22:28 28.36918 -15.15182 12379 ft 365 kts 31°
2026-05-04 22:28 28.39071 -15.13625 13037 ft 369 kts 31°
2026-05-04 22:29 28.41250 -15.12054 13681 ft 373 kts 31°
2026-05-04 22:29 28.43450 -15.10467 14295 ft 377 kts 31°
2026-05-04 22:29 28.45680 -15.08859 14914 ft 382 kts 31°
2026-05-04 22:29 28.47900 -15.07258 15543 ft 385 kts 31°
2026-05-04 22:30 28.50170 -15.05621 16146 ft 388 kts 31°
2026-05-04 22:30 28.52464 -15.03967 16732 ft 392 kts 31°
2026-05-04 22:30 28.54776 -15.02298 17287 ft 396 kts 31°
2026-05-04 22:30 28.57114 -15.00605 17842 ft 400 kts 31°
2026-05-04 22:31 28.59472 -14.98899 18390 ft 404 kts 31°
2026-05-04 22:31 28.61853 -14.97175 18949 ft 407 kts 31°
2026-05-04 22:31 28.64250 -14.95441 19523 ft 410 kts 31°
2026-05-04 22:31 28.66632 -14.93717 20055 ft 413 kts 31°
2026-05-04 22:32 28.69067 -14.91954 20580 ft 416 kts 31°
2026-05-04 22:32 28.71524 -14.90180 21101 ft 419 kts 31°
2026-05-04 22:32 28.73993 -14.88389 21598 ft 422 kts 31°
2026-05-04 22:32 28.76475 -14.86586 22061 ft 425 kts 31°
2026-05-04 22:33 28.78979 -14.84765 22505 ft 428 kts 31°
2026-05-04 22:33 28.81502 -14.82929 22949 ft 431 kts 31°
2026-05-04 22:33 28.84008 -14.81107 23386 ft 434 kts 31°
2026-05-04 22:33 28.86560 -14.79249 23807 ft 437 kts 31°
2026-05-04 22:34 28.89128 -14.77378 24211 ft 440 kts 31°
2026-05-04 22:34 28.91713 -14.75495 24614 ft 442 kts 31°
2026-05-04 22:34 28.94317 -14.73599 24985 ft 445 kts 31°
2026-05-04 22:34 28.96937 -14.71688 25342 ft 448 kts 31°
2026-05-04 22:35 28.99574 -14.69762 25705 ft 451 kts 31°
2026-05-04 22:35 29.02228 -14.67824 26072 ft 454 kts 31°
2026-05-04 22:35 29.04859 -14.65902 26409 ft 456 kts 31°
2026-05-04 22:35 29.07541 -14.63942 26748 ft 459 kts 31°
2026-05-04 22:36 29.10236 -14.61971 27076 ft 462 kts 30°
2026-05-04 22:36 29.12949 -14.59987 27394 ft 464 kts 31°
2026-05-04 22:36 29.15678 -14.57989 27701 ft 467 kts 31°
2026-05-04 22:36 29.18417 -14.55980 28016 ft 468 kts 31°
2026-05-04 22:37 29.21166 -14.53964 28287 ft 471 kts 30°
2026-05-04 22:37 29.23935 -14.51932 28556 ft 474 kts 30°
2026-05-04 22:37 29.26676 -14.49918 28838 ft 476 kts 31°
2026-05-04 22:37 29.29467 -14.47867 29132 ft 478 kts 30°
2026-05-04 22:38 29.32272 -14.45805 29408 ft 480 kts 30°
2026-05-04 22:38 29.35088 -14.43732 29678 ft 482 kts 31°
2026-05-04 22:38 29.37912 -14.41653 29941 ft 484 kts 30°
2026-05-04 22:38 29.40750 -14.39563 30183 ft 486 kts 30°
2026-05-04 22:39 29.43601 -14.37460 30414 ft 488 kts 30°
2026-05-04 22:39 29.46458 -14.35351 30709 ft 488 kts 30°
2026-05-04 22:39 29.49269 -14.33276 31075 ft 486 kts 30°
2026-05-04 22:39 29.52109 -14.31178 31395 ft 486 kts 30°
2026-05-04 22:40 29.54955 -14.29074 31667 ft 486 kts 30°
2026-05-04 22:40 29.57798 -14.26970 31954 ft 486 kts 30°
2026-05-04 22:40 29.60642 -14.24866 32268 ft 485 kts 30°
2026-05-04 22:40 29.63479 -14.22764 32576 ft 485 kts 30°
2026-05-04 22:41 29.66315 -14.20662 32830 ft 485 kts 30°
2026-05-04 22:41 29.69149 -14.18561 33089 ft 485 kts 30°
2026-05-04 22:41 29.71951 -14.16482 33358 ft 485 kts 30°
2026-05-04 22:41 29.74786 -14.14377 33621 ft 485 kts 30°
2026-05-04 22:42 29.77621 -14.12269 33880 ft 485 kts 30°
2026-05-04 22:42 29.80448 -14.10165 34137 ft 484 kts 30°
2026-05-04 22:42 29.83279 -14.08058 34372 ft 484 kts 30°
2026-05-04 22:42 29.86105 -14.05952 34613 ft 484 kts 30°
2026-05-04 22:43 29.88934 -14.03842 34839 ft 484 kts 30°
2026-05-04 22:43 29.91759 -14.01734 35096 ft 483 kts 30°
2026-05-04 22:43 29.94578 -13.99631 35340 ft 482 kts 30°
2026-05-04 22:43 29.97391 -13.97531 35598 ft 482 kts 30°
2026-05-04 22:44 30.00160 -13.95463 35838 ft 481 kts 30°
2026-05-04 22:44 30.02966 -13.93364 36046 ft 480 kts 30°
2026-05-04 22:44 30.05779 -13.91260 36097 ft 483 kts 30°
2026-05-04 22:45 30.11426 -13.87031 36098 ft 483 kts 30°
2026-05-04 22:45 30.19822 -13.80727 36095 ft 477 kts 30°
2026-05-04 22:46 30.25327 -13.76589 36096 ft 474 kts 30°
2026-05-04 22:46 30.30848 -13.72434 36104 ft 473 kts 30°
2026-05-04 22:47 30.36361 -13.68279 36107 ft 473 kts 30°
2026-05-04 22:47 30.41890 -13.64108 36106 ft 475 kts 30°
2026-05-04 22:48 30.47395 -13.59950 36110 ft 477 kts 30°
2026-05-04 22:48 30.53019 -13.55850 36101 ft 478 kts 26°
2026-05-04 22:49 30.58871 -13.52165 36094 ft 479 kts 25°
2026-05-04 22:49 30.64767 -13.48555 36095 ft 480 kts 25°
2026-05-04 22:50 30.70623 -13.44927 36093 ft 481 kts 25°
2026-05-04 22:50 30.76510 -13.41236 36092 ft 481 kts 25°
2026-05-04 22:51 30.82381 -13.37536 36090 ft 479 kts 25°
2026-05-04 22:51 30.88230 -13.33847 36087 ft 478 kts 25°
2026-05-04 22:52 30.94019 -13.30191 36089 ft 475 kts 25°
2026-05-04 22:52 30.99822 -13.26524 36092 ft 473 kts 25°
2026-05-04 22:53 31.05602 -13.22865 36091 ft 471 kts 25°
2026-05-04 22:53 31.11355 -13.19220 36091 ft 470 kts 25°
2026-05-04 22:54 31.17097 -13.15579 36096 ft 469 kts 25°
2026-05-04 22:54 31.22788 -13.11962 36094 ft 469 kts 25°
2026-05-04 22:55 31.28533 -13.08309 36097 ft 470 kts 25°
2026-05-04 22:55 31.34286 -13.04642 36094 ft 471 kts 25°
2026-05-04 22:56 31.40045 -13.00965 36094 ft 472 kts 25°
2026-05-04 22:56 31.45774 -12.97303 36094 ft 473 kts 25°
2026-05-04 22:57 31.51545 -12.93610 36092 ft 473 kts 25°
2026-05-04 22:57 31.57334 -12.89898 36096 ft 473 kts 25°
2026-05-04 22:58 31.63153 -12.86293 36082 ft 471 kts 19°
2026-05-04 22:58 31.69275 -12.83641 36091 ft 469 kts 15°
2026-05-04 22:59 31.75406 -12.81169 36092 ft 469 kts 15°
2026-05-04 22:59 31.81554 -12.78639 36100 ft 468 kts 16°
2026-05-04 23:00 31.87687 -12.76064 36099 ft 468 kts 16°
2026-05-04 23:00 31.93801 -12.73465 36105 ft 467 kts 16°
2026-05-04 23:01 31.99879 -12.70880 36098 ft 467 kts 16°
2026-05-04 23:01 32.05989 -12.68277 36105 ft 466 kts 16°
2026-05-04 23:02 32.12089 -12.65676 36100 ft 466 kts 16°
2026-05-04 23:02 32.18191 -12.63071 36104 ft 466 kts 16°
2026-05-04 23:03 32.24251 -12.60480 36100 ft 466 kts 16°
2026-05-04 23:03 32.30343 -12.57869 36100 ft 465 kts 16°
2026-05-04 23:04 32.36422 -12.55264 36100 ft 465 kts 16°
2026-05-04 23:04 32.42504 -12.52654 36100 ft 464 kts 17°
2026-05-04 23:05 32.47543 -12.50488 36105 ft 464 kts 17°
2026-05-04 23:05 32.54604 -12.47448 36100 ft 464 kts 17°
2026-05-04 23:06 32.60673 -12.44831 36100 ft 464 kts 17°
2026-05-04 23:06 32.65715 -12.42654 36105 ft 464 kts 17°
2026-05-04 23:07 32.72768 -12.39603 36103 ft 464 kts 17°
2026-05-04 23:07 32.77854 -12.37400 36099 ft 465 kts 17°
2026-05-04 23:08 32.83886 -12.34785 36102 ft 464 kts 17°
2026-05-04 23:08 32.89952 -12.32152 36100 ft 464 kts 17°
2026-05-04 23:09 32.96013 -12.29518 36100 ft 464 kts 17°
2026-05-04 23:09 33.02079 -12.26874 36104 ft 464 kts 17°
2026-05-04 23:10 33.08142 -12.24230 36102 ft 464 kts 17°
2026-05-04 23:10 33.14164 -12.21599 36100 ft 464 kts 17°
2026-05-04 23:11 33.20224 -12.18948 36109 ft 464 kts 17°
2026-05-04 23:11 33.26273 -12.16296 36108 ft 463 kts 17°
2026-05-04 23:12 33.32323 -12.13646 36115 ft 463 kts 17°
2026-05-04 23:12 33.38325 -12.11010 36110 ft 462 kts 17°
2026-05-04 23:13 33.44362 -12.08353 36109 ft 462 kts 17°
2026-05-04 23:13 33.50383 -12.05698 36108 ft 461 kts 17°
2026-05-04 23:14 33.56399 -12.03041 36106 ft 461 kts 17°
2026-05-04 23:14 33.62374 -12.00401 36105 ft 460 kts 17°
2026-05-04 23:15 33.68383 -11.97743 36100 ft 460 kts 17°
2026-05-04 23:15 33.74388 -11.95080 36102 ft 460 kts 17°
2026-05-04 23:16 33.80386 -11.92417 36100 ft 460 kts 17°
2026-05-04 23:16 33.86343 -11.89771 36101 ft 459 kts 17°
2026-05-04 23:17 33.92342 -11.87100 36103 ft 459 kts 17°
2026-05-04 23:17 33.98332 -11.84427 36102 ft 459 kts 17°
2026-05-04 23:18 34.04335 -11.81748 36104 ft 460 kts 17°
2026-05-04 23:18 34.10302 -11.79077 36102 ft 461 kts 18°
2026-05-04 23:19 34.16310 -11.76385 36100 ft 460 kts 18°
2026-05-04 23:19 34.22320 -11.73687 36102 ft 461 kts 17°
2026-05-04 23:20 34.28329 -11.70988 36100 ft 460 kts 17°
2026-05-04 23:20 34.34298 -11.68300 36102 ft 461 kts 17°
2026-05-04 23:21 34.40308 -11.65592 36099 ft 461 kts 17°
2026-05-04 23:21 34.46323 -11.62877 36104 ft 461 kts 17°
2026-05-04 23:22 34.52335 -11.60158 36109 ft 461 kts 17°
2026-05-04 23:22 34.58307 -11.57455 36113 ft 461 kts 17°
2026-05-04 23:23 34.64315 -11.54730 36108 ft 461 kts 17°
2026-05-04 23:23 34.70319 -11.52004 36112 ft 460 kts 17°
2026-05-04 23:24 34.76321 -11.49272 36110 ft 460 kts 17°
2026-05-04 23:24 34.82308 -11.46543 36114 ft 459 kts 17°
2026-05-04 23:25 34.88251 -11.43829 36111 ft 459 kts 17°
2026-05-04 23:25 34.94218 -11.41099 36112 ft 458 kts 17°
2026-05-04 23:26 35.00182 -11.38368 36111 ft 458 kts 17°
2026-05-04 23:26 35.06102 -11.35656 36113 ft 457 kts 17°
2026-05-04 23:27 35.12056 -11.32925 36108 ft 457 kts 17°
2026-05-04 23:27 35.18009 -11.30186 36114 ft 457 kts 17°
2026-05-04 23:28 35.23971 -11.27440 36112 ft 458 kts 17°
2026-05-04 23:28 35.29899 -11.24706 36109 ft 459 kts 17°
2026-05-04 23:29 35.35876 -11.21944 36112 ft 459 kts 17°
2026-05-04 23:29 35.41856 -11.19176 36111 ft 459 kts 17°
2026-05-04 23:30 35.47831 -11.16407 36113 ft 459 kts 17°
2026-05-04 23:30 35.53807 -11.13632 36111 ft 459 kts 17°
2026-05-04 23:31 35.59743 -11.10874 36109 ft 459 kts 17°
2026-05-04 23:31 35.65717 -11.08091 36106 ft 459 kts 17°
2026-05-04 23:32 35.71689 -11.05303 36108 ft 459 kts 17°
2026-05-04 23:32 35.77656 -11.02519 36106 ft 459 kts 17°
2026-05-04 23:33 35.83575 -10.99751 36107 ft 458 kts 17°
2026-05-04 23:33 35.89530 -10.96961 36112 ft 458 kts 17°
2026-05-04 23:34 35.95488 -10.94184 36109 ft 457 kts 15°
2026-05-04 23:34 35.98544 -10.93203 36099 ft 451 kts
2026-05-04 23:34 36.01640 -10.92723 36117 ft 448 kts
2026-05-04 23:35 36.07809 -10.91910 36125 ft 449 kts
2026-05-04 23:35 36.14012 -10.91083 36123 ft 448 kts
2026-05-04 23:36 36.20216 -10.90219 36129 ft 448 kts
2026-05-04 23:36 36.26412 -10.89336 36128 ft 448 kts
2026-05-04 23:37 36.32611 -10.88445 36134 ft 448 kts
2026-05-04 23:37 36.38749 -10.87561 36126 ft 448 kts
2026-05-04 23:38 36.44951 -10.86667 36134 ft 448 kts
2026-05-04 23:38 36.51144 -10.85773 36125 ft 448 kts
2026-05-04 23:39 36.57294 -10.84880 36129 ft 447 kts
2026-05-04 23:39 36.63473 -10.83987 36132 ft 447 kts
2026-05-04 23:40 36.69648 -10.83093 36126 ft 447 kts
2026-05-04 23:40 36.75829 -10.82196 36131 ft 447 kts
2026-05-04 23:41 36.82010 -10.81301 36127 ft 448 kts
2026-05-04 23:41 36.88163 -10.80405 36120 ft 448 kts
2026-05-04 23:42 36.94357 -10.79497 36125 ft 448 kts
2026-05-04 23:42 37.00545 -10.78592 36114 ft 448 kts
2026-05-04 23:43 37.06732 -10.77688 36115 ft 448 kts
2026-05-04 23:43 37.12878 -10.76787 36119 ft 448 kts
2026-05-04 23:44 37.19066 -10.75878 36126 ft 448 kts
2026-05-04 23:44 37.25250 -10.74970 36120 ft 447 kts
2026-05-04 23:45 37.31426 -10.74058 36119 ft 447 kts
2026-05-04 23:45 37.37558 -10.73153 36119 ft 446 kts
2026-05-04 23:46 37.43716 -10.72241 36120 ft 446 kts
2026-05-04 23:46 37.49872 -10.71329 36116 ft 445 kts
2026-05-04 23:47 37.56019 -10.70419 36126 ft 445 kts
2026-05-04 23:47 37.62125 -10.69512 36120 ft 445 kts
2026-05-04 23:48 37.68273 -10.68597 36122 ft 445 kts
2026-05-04 23:48 37.74422 -10.67680 36134 ft 445 kts
2026-05-04 23:49 37.80569 -10.66763 36133 ft 445 kts
2026-05-04 23:49 37.86680 -10.65846 36125 ft 445 kts
2026-05-04 23:50 37.92833 -10.64925 36129 ft 445 kts
2026-05-04 23:50 37.98986 -10.64011 36128 ft 445 kts
2026-05-04 23:51 38.05141 -10.63082 36127 ft 445 kts
2026-05-04 23:51 38.11299 -10.62152 36129 ft 446 kts
2026-05-04 23:52 38.17418 -10.61229 36128 ft 446 kts
2026-05-04 23:52 38.23581 -10.60297 36131 ft 446 kts
2026-05-04 23:53 38.29735 -10.59365 36130 ft 445 kts
2026-05-04 23:53 38.35885 -10.58431 36130 ft 445 kts
2026-05-04 23:54 38.41985 -10.57508 36129 ft 445 kts
2026-05-04 23:54 38.48126 -10.56573 36129 ft 444 kts
2026-05-04 23:55 38.54264 -10.55637 36132 ft 444 kts
2026-05-04 23:56 38.63421 -10.54237 36130 ft 443 kts
2026-05-04 23:56 38.69545 -10.53301 36129 ft 444 kts
2026-05-04 23:57 38.75666 -10.52361 36134 ft 443 kts
2026-05-04 23:57 38.81788 -10.51423 36121 ft 443 kts
2026-05-04 23:58 38.87911 -10.50482 36113 ft 443 kts
2026-05-04 23:58 38.93994 -10.49541 36107 ft 443 kts
2026-05-04 23:59 39.00116 -10.48597 36117 ft 443 kts
2026-05-04 23:59 39.06231 -10.47656 36129 ft 442 kts
2026-05-05 00:00 39.12349 -10.46708 36123 ft 443 kts
2026-05-05 00:00 39.18427 -10.45764 36137 ft 443 kts
2026-05-05 00:01 39.24561 -10.44810 36131 ft 444 kts
2026-05-05 00:01 39.30695 -10.43853 36119 ft 444 kts
2026-05-05 00:02 39.36829 -10.42895 36110 ft 444 kts
2026-05-05 00:02 39.42963 -10.41937 36113 ft 444 kts
2026-05-05 00:03 39.49042 -10.40987 36118 ft 443 kts
2026-05-05 00:03 39.55159 -10.40028 36125 ft 443 kts
2026-05-05 00:04 39.61273 -10.39068 36117 ft 443 kts
2026-05-05 00:04 39.67352 -10.38112 36125 ft 443 kts
2026-05-05 00:05 39.73464 -10.37147 36128 ft 443 kts
2026-05-05 00:05 39.79579 -10.36179 36121 ft 443 kts
2026-05-05 00:06 39.85697 -10.35210 36124 ft 443 kts
2026-05-05 00:06 39.91818 -10.34241 36119 ft 444 kts
2026-05-05 00:07 39.97908 -10.33276 36123 ft 444 kts
2026-05-05 00:07 40.04039 -10.32300 36119 ft 444 kts
2026-05-05 00:08 40.10173 -10.31323 36125 ft 444 kts
2026-05-05 00:08 40.16308 -10.30342 36114 ft 443 kts
2026-05-05 00:09 40.22388 -10.29371 36116 ft 443 kts
2026-05-05 00:09 40.28512 -10.28389 36125 ft 443 kts
2026-05-05 00:10 40.34637 -10.27406 36121 ft 443 kts
2026-05-05 00:10 40.40758 -10.26423 36121 ft 443 kts
2026-05-05 00:11 40.46839 -10.25442 36124 ft 443 kts
2026-05-05 00:11 40.52959 -10.24456 36123 ft 443 kts
2026-05-05 00:12 40.59075 -10.23469 36117 ft 442 kts
2026-05-05 00:12 40.65193 -10.22476 36119 ft 443 kts
2026-05-05 00:13 40.71311 -10.21488 36121 ft 443 kts
2026-05-05 00:13 40.77386 -10.20502 36120 ft 443 kts
2026-05-05 00:14 40.83497 -10.19507 36118 ft 442 kts
2026-05-05 00:14 40.89609 -10.18523 36110 ft 442 kts
2026-05-05 00:15 40.95724 -10.17830 36112 ft 440 kts
2026-05-05 00:15 41.01838 -10.17261 36105 ft 440 kts
2026-05-05 00:16 41.07914 -10.16671 36100 ft 441 kts
2026-05-05 00:16 41.14021 -10.16051 36102 ft 440 kts
2026-05-05 00:17 41.20122 -10.15421 36103 ft 439 kts
2026-05-05 00:17 41.26218 -10.14787 36100 ft 440 kts
2026-05-05 00:18 41.32272 -10.14158 36102 ft 439 kts
2026-05-05 00:18 41.38370 -10.13524 36102 ft 439 kts
2026-05-05 00:19 41.44464 -10.12883 36101 ft 439 kts
2026-05-05 00:19 41.50561 -10.12247 36102 ft 440 kts
2026-05-05 00:20 41.56619 -10.11615 36103 ft 439 kts
2026-05-05 00:20 41.62718 -10.10976 36103 ft 440 kts
2026-05-05 00:21 41.68822 -10.10332 36098 ft 440 kts
2026-05-05 00:21 41.74922 -10.09693 36103 ft 440 kts
2026-05-05 00:22 41.81029 -10.09049 36102 ft 440 kts
2026-05-05 00:22 41.87099 -10.08410 36103 ft 441 kts
2026-05-05 00:23 41.93218 -10.07765 36101 ft 441 kts
2026-05-05 00:23 41.99335 -10.07118 36101 ft 441 kts
2026-05-05 00:24 42.05452 -10.06328 36101 ft 442 kts
2026-05-05 00:24 42.11509 -10.05146 36099 ft 443 kts
2026-05-05 00:25 42.17597 -10.03905 36101 ft 442 kts
2026-05-05 00:25 42.23685 -10.02700 36106 ft 442 kts
2026-05-05 00:26 42.29772 -10.01519 36092 ft 442 kts
2026-05-05 00:26 42.35820 -10.00349 36093 ft 441 kts
2026-05-05 00:27 42.41897 -9.99174 36092 ft 442 kts
2026-05-05 00:27 42.47979 -9.97994 36089 ft 441 kts
2026-05-05 00:28 42.54052 -9.96817 36094 ft 441 kts
2026-05-05 00:28 42.60087 -9.95641 36092 ft 441 kts
2026-05-05 00:29 42.66163 -9.94455 36091 ft 441 kts
2026-05-05 00:29 42.72234 -9.93269 36093 ft 441 kts
2026-05-05 00:30 42.78315 -9.92079 36091 ft 441 kts
2026-05-05 00:30 42.84392 -9.90890 36094 ft 441 kts
2026-05-05 00:31 42.90425 -9.89702 36090 ft 441 kts
2026-05-05 00:31 42.96495 -9.88501 36096 ft 441 kts
2026-05-05 00:32 43.02583 -9.87304 36083 ft 442 kts
2026-05-05 00:32 43.08667 -9.86105 36069 ft 442 kts
2026-05-05 00:33 43.14707 -9.84908 36075 ft 441 kts
2026-05-05 00:33 43.20780 -9.83701 36075 ft 441 kts
2026-05-05 00:34 43.26848 -9.82492 36075 ft 440 kts
2026-05-05 00:34 43.32914 -9.81283 36073 ft 440 kts
2026-05-05 00:35 43.38932 -9.80081 36071 ft 440 kts
2026-05-05 00:35 43.44979 -9.78871 36076 ft 439 kts
2026-05-05 00:36 43.51026 -9.77659 36071 ft 439 kts
2026-05-05 00:36 43.57074 -9.76444 36076 ft 439 kts
2026-05-05 00:37 43.63121 -9.75227 36071 ft 439 kts
2026-05-05 00:37 43.69116 -9.74015 36074 ft 438 kts
2026-05-05 00:38 43.75148 -9.72796 36074 ft 438 kts
2026-05-05 00:38 43.81178 -9.71573 36072 ft 438 kts
2026-05-05 00:39 43.87205 -9.70351 36073 ft 438 kts
2026-05-05 00:39 43.93193 -9.69131 36075 ft 438 kts
2026-05-05 00:40 43.99226 -9.67902 36074 ft 438 kts
2026-05-05 00:40 44.05258 -9.66671 36077 ft 438 kts
2026-05-05 00:41 44.11253 -9.65443 36074 ft 438 kts
2026-05-05 00:41 44.17291 -9.64205 36075 ft 438 kts
2026-05-05 00:42 44.23329 -9.62963 36074 ft 439 kts
2026-05-05 00:42 44.29376 -9.61718 36073 ft 440 kts
2026-05-05 00:43 44.35428 -9.60471 36074 ft 439 kts
2026-05-05 00:43 44.41427 -9.59229 36071 ft 439 kts
2026-05-05 00:44 44.47468 -9.57978 36076 ft 438 kts
2026-05-05 00:44 44.53500 -9.56727 36074 ft 438 kts
2026-05-05 00:45 44.59536 -9.55469 36077 ft 438 kts
2026-05-05 00:45 44.65525 -9.54222 36070 ft 438 kts
2026-05-05 00:46 44.71556 -9.52966 36071 ft 438 kts
2026-05-05 00:46 44.77584 -9.51703 36070 ft 438 kts
2026-05-05 00:47 44.83619 -9.50435 36060 ft 438 kts
2026-05-05 00:47 44.89602 -9.49183 36073 ft 437 kts
2026-05-05 00:48 44.95624 -9.47918 36067 ft 437 kts
2026-05-05 00:48 45.01658 -9.46857 36067 ft 436 kts
2026-05-05 00:49 45.07721 -9.46866 36064 ft 436 kts 359°
2026-05-05 00:49 45.13741 -9.47018 36070 ft 436 kts 359°
2026-05-05 00:50 45.19799 -9.47127 36064 ft 436 kts 359°
2026-05-05 00:50 45.25871 -9.47196 36063 ft 436 kts 359°
2026-05-05 00:51 45.31932 -9.47249 36060 ft 435 kts 360°
2026-05-05 00:51 45.37996 -9.47299 36065 ft 436 kts 360°
2026-05-05 00:52 45.44020 -9.47349 36064 ft 436 kts 360°
2026-05-05 00:52 45.50087 -9.47400 36066 ft 436 kts 360°
2026-05-05 00:53 45.56152 -9.47448 36062 ft 436 kts 360°
2026-05-05 00:53 45.62176 -9.47501 36052 ft 436 kts 360°
2026-05-05 00:54 45.68238 -9.47556 36055 ft 436 kts 360°
2026-05-05 00:54 45.74294 -9.47612 36050 ft 435 kts 360°
2026-05-05 00:55 45.80348 -9.47663 36053 ft 434 kts 360°
2026-05-05 00:55 45.86392 -9.47718 36056 ft 434 kts 360°
2026-05-05 00:56 45.92388 -9.47767 36052 ft 434 kts
2026-05-05 00:56 45.98429 -9.47820 36057 ft 434 kts 360°
2026-05-05 00:57 46.04475 -9.47870 36053 ft 434 kts
2026-05-05 00:57 46.10521 -9.47924 36060 ft 434 kts
2026-05-05 00:58 46.16519 -9.47979 36058 ft 434 kts
2026-05-05 00:58 46.22560 -9.48034 36042 ft 433 kts
2026-05-05 00:59 46.28586 -9.48088 36048 ft 434 kts
2026-05-05 00:59 46.34621 -9.48142 36043 ft 433 kts
2026-05-05 01:00 46.40611 -9.48196 36048 ft 434 kts
2026-05-05 01:00 46.46644 -9.48246 36045 ft 433 kts
2026-05-05 01:01 46.52667 -9.48297 36054 ft 433 kts
2026-05-05 01:01 46.58694 -9.48353 36045 ft 433 kts
2026-05-05 01:02 46.64675 -9.48408 36054 ft 433 kts
2026-05-05 01:02 46.70683 -9.48465 36077 ft 432 kts
2026-05-05 01:03 46.76691 -9.48520 36084 ft 432 kts
2026-05-05 01:03 46.82707 -9.48573 36083 ft 432 kts
2026-05-05 01:04 46.88686 -9.48627 36092 ft 433 kts
2026-05-05 01:04 46.97737 -9.48711 36093 ft 434 kts
2026-05-05 01:05 47.03773 -9.48765 36094 ft 434 kts
2026-05-05 01:05 47.09819 -9.48821 36091 ft 434 kts
2026-05-05 01:06 47.15817 -9.48877 36091 ft 434 kts
2026-05-05 01:06 47.21850 -9.48930 36093 ft 434 kts
2026-05-05 01:07 47.27886 -9.48981 36091 ft 433 kts
2026-05-05 01:07 47.33907 -9.49036 36091 ft 433 kts
2026-05-05 01:08 47.39927 -9.49095 36093 ft 433 kts
2026-05-05 01:08 47.45902 -9.49153 36092 ft 432 kts
2026-05-05 01:09 47.51916 -9.49208 36090 ft 432 kts
2026-05-05 01:09 47.57917 -9.49265 36092 ft 431 kts
2026-05-05 01:10 47.63922 -9.49317 36094 ft 431 kts
2026-05-05 01:10 47.69922 -9.49376 36091 ft 431 kts
2026-05-05 01:11 47.75873 -9.49431 36093 ft 431 kts
2026-05-05 01:11 47.81859 -9.49486 36090 ft 430 kts
2026-05-05 01:12 47.87841 -9.49544 36093 ft 430 kts
2026-05-05 01:12 47.93833 -9.49601 36095 ft 430 kts
2026-05-05 01:13 47.99775 -9.49669 36092 ft 430 kts
2026-05-05 01:13 48.05750 -9.49742 36101 ft 429 kts
2026-05-05 01:14 48.11717 -9.49798 36103 ft 429 kts
2026-05-05 01:14 48.17675 -9.49854 36099 ft 428 kts
2026-05-05 01:15 48.23595 -9.49909 36102 ft 428 kts
2026-05-05 01:15 48.29551 -9.49965 36102 ft 428 kts
2026-05-05 01:16 48.35509 -9.50022 36102 ft 428 kts
2026-05-05 01:16 48.41471 -9.50079 36098 ft 429 kts
2026-05-05 01:17 48.47449 -9.50137 36064 ft 430 kts
2026-05-05 01:17 48.53388 -9.50194 36057 ft 430 kts
2026-05-05 01:18 48.59359 -9.50251 36056 ft 429 kts
2026-05-05 01:18 48.65328 -9.50306 36054 ft 429 kts
2026-05-05 01:19 48.71299 -9.50310 36057 ft 429 kts
2026-05-05 01:19 48.77222 -9.50302 36050 ft 428 kts
2026-05-05 01:20 48.83175 -9.50301 36054 ft 427 kts
2026-05-05 01:20 48.89126 -9.50300 36053 ft 427 kts
2026-05-05 01:21 48.95067 -9.50300 36052 ft 427 kts
2026-05-05 01:21 49.00989 -9.50154 36061 ft 425 kts
2026-05-05 01:22 49.06779 -9.48697 36063 ft 424 kts 11°
2026-05-05 01:22 49.12572 -9.47044 36063 ft 423 kts 11°
2026-05-05 01:23 49.18358 -9.45431 36066 ft 423 kts 11°
2026-05-05 01:23 49.24145 -9.43862 36066 ft 422 kts 11°
2026-05-05 01:24 49.29893 -9.42318 36070 ft 422 kts 11°
2026-05-05 01:24 49.35673 -9.40765 36063 ft 421 kts 11°
2026-05-05 01:25 49.41449 -9.39207 36069 ft 421 kts 11°
2026-05-05 01:25 49.47188 -9.37654 36067 ft 421 kts 11°
2026-05-05 01:26 49.52957 -9.36093 36069 ft 421 kts 11°
2026-05-05 01:26 49.58727 -9.34526 36076 ft 421 kts 11°
2026-05-05 01:27 49.64495 -9.32953 36073 ft 421 kts 11°
2026-05-05 01:27 49.70263 -9.31382 36070 ft 421 kts 11°
2026-05-05 01:28 49.75991 -9.29819 36076 ft 421 kts 11°
2026-05-05 01:28 49.81760 -9.28235 36074 ft 421 kts 11°
2026-05-05 01:29 49.87534 -9.26648 36072 ft 422 kts 11°
2026-05-05 01:29 49.93312 -9.25055 36076 ft 422 kts 11°
2026-05-05 01:30 49.99096 -9.23456 36083 ft 422 kts 11°
2026-05-05 01:30 50.04834 -9.21869 36089 ft 422 kts 11°
2026-05-05 01:31 50.10612 -9.20267 36078 ft 422 kts 11°
2026-05-05 01:31 50.16385 -9.18658 36086 ft 422 kts 11°
2026-05-05 01:32 50.22160 -9.17047 36081 ft 421 kts 11°
2026-05-05 01:32 50.27888 -9.15447 36083 ft 421 kts 11°
2026-05-05 01:33 50.33658 -9.13829 36082 ft 421 kts 11°
2026-05-05 01:33 50.39423 -9.12205 36084 ft 421 kts 11°
2026-05-05 01:34 50.45189 -9.10581 36083 ft 421 kts 11°
2026-05-05 01:34 50.50923 -9.08963 36082 ft 422 kts 11°
2026-05-05 01:35 50.56713 -9.07326 36083 ft 423 kts 11°
2026-05-05 01:35 50.62504 -9.05683 36083 ft 423 kts 11°
2026-05-05 01:36 50.68288 -9.04037 36086 ft 422 kts 11°
2026-05-05 01:36 50.74071 -9.02388 36091 ft 422 kts 11°
2026-05-05 01:37 50.79815 -9.00746 36095 ft 422 kts 11°
2026-05-05 01:37 50.85596 -8.99089 36092 ft 422 kts 11°
2026-05-05 01:38 50.91376 -8.97426 36093 ft 422 kts 11°
2026-05-05 01:38 50.97161 -8.95760 36094 ft 423 kts 11°
2026-05-05 01:39 51.02907 -8.94101 36092 ft 423 kts 11°
2026-05-05 01:39 51.08699 -8.92423 36091 ft 423 kts 11°
2026-05-05 01:40 51.14299 -8.89725 36097 ft 422 kts 26°
2026-05-05 01:40 51.19196 -8.84604 36108 ft 422 kts 37°
2026-05-05 01:41 51.23876 -8.78932 36106 ft 423 kts 37°
2026-05-05 01:41 51.28547 -8.73316 36100 ft 424 kts 36°
2026-05-05 01:42 51.33275 -8.67679 36104 ft 424 kts 36°
2026-05-05 01:42 51.38010 -8.62032 36099 ft 424 kts 36°
2026-05-05 01:43 51.42745 -8.56378 36103 ft 425 kts 35°
2026-05-05 01:43 51.47624 -8.51150 36104 ft 425 kts 32°
2026-05-05 01:44 51.52624 -8.46090 36094 ft 425 kts 32°
2026-05-05 01:44 51.57621 -8.41002 36100 ft 425 kts 32°
2026-05-05 01:45 51.62598 -8.35877 36098 ft 425 kts 32°
2026-05-05 01:45 51.67530 -8.30754 36102 ft 425 kts 32°
2026-05-05 01:46 51.72497 -8.25576 36101 ft 425 kts 32°
2026-05-05 01:46 51.77449 -8.20402 36102 ft 424 kts 32°
2026-05-05 01:47 51.82409 -8.15213 36101 ft 424 kts 33°
2026-05-05 01:47 51.87305 -8.10071 35745 ft 419 kts 33°
2026-05-05 01:48 51.89725 -8.07521 35415 ft 413 kts 33°
2026-05-05 01:48 51.92121 -8.04994 35029 ft 409 kts 33°
2026-05-05 01:48 51.94491 -8.02494 34651 ft 405 kts 33°
2026-05-05 01:48 51.96840 -8.00014 34268 ft 401 kts 33°
2026-05-05 01:49 51.99170 -7.97551 33890 ft 398 kts 33°
2026-05-05 01:49 52.01476 -7.95109 33504 ft 394 kts 33°
2026-05-05 01:49 52.03732 -7.92717 33132 ft 391 kts 33°
2026-05-05 01:49 52.06006 -7.90303 32758 ft 389 kts 33°
2026-05-05 01:50 52.08257 -7.87911 32386 ft 386 kts 33°
2026-05-05 01:50 52.10495 -7.85529 32013 ft 383 kts 33°
2026-05-05 01:50 52.12714 -7.83163 31648 ft 380 kts 33°
2026-05-05 01:50 52.14917 -7.80814 31279 ft 377 kts 33°
2026-05-05 01:51 52.17108 -7.78469 30926 ft 375 kts 33°
2026-05-05 01:51 52.19277 -7.76150 30544 ft 373 kts 33°
2026-05-05 01:51 52.21448 -7.73829 30128 ft 372 kts 33°
2026-05-05 01:51 52.23588 -7.71539 29660 ft 372 kts 33°
2026-05-05 01:52 52.25743 -7.69226 29280 ft 369 kts 33°
2026-05-05 01:52 52.27884 -7.66925 28890 ft 367 kts 33°
2026-05-05 01:52 52.30004 -7.64644 28505 ft 364 kts 33°
2026-05-05 01:52 52.32111 -7.62374 28130 ft 362 kts 33°
2026-05-05 01:53 52.34207 -7.60115 27766 ft 360 kts 33°
2026-05-05 01:53 52.36288 -7.57868 27398 ft 357 kts 33°
2026-05-05 01:53 52.38355 -7.55635 27027 ft 355 kts 33°
2026-05-05 01:53 52.40381 -7.53443 26670 ft 353 kts 33°
2026-05-05 01:54 52.42421 -7.51235 26304 ft 350 kts 33°
2026-05-05 01:54 52.44446 -7.49040 25950 ft 348 kts 33°
2026-05-05 01:54 52.46394 -7.46713 25583 ft 346 kts 39°
2026-05-05 01:54 52.48202 -7.44128 25234 ft 343 kts 41°
2026-05-05 01:55 52.49963 -7.41495 24880 ft 342 kts 42°
2026-05-05 01:55 52.51712 -7.38858 24527 ft 340 kts 42°
2026-05-05 01:55 52.53450 -7.36247 24177 ft 338 kts 41°
2026-05-05 01:55 52.55160 -7.33691 23830 ft 336 kts 41°
2026-05-05 01:56 52.56886 -7.31121 23481 ft 334 kts 41°
2026-05-05 01:56 52.58605 -7.28567 23133 ft 333 kts 41°
2026-05-05 01:56 52.60319 -7.26025 22789 ft 331 kts 41°
2026-05-05 01:56 52.62024 -7.23498 22446 ft 329 kts 41°
2026-05-05 01:57 52.63720 -7.20981 22106 ft 327 kts 41°
2026-05-05 01:57 52.65404 -7.18480 21768 ft 325 kts 41°
2026-05-05 01:57 52.67078 -7.15990 21422 ft 324 kts 41°
2026-05-05 01:57 52.68723 -7.13542 21102 ft 322 kts 41°
2026-05-05 01:58 52.70379 -7.11077 20771 ft 320 kts 41°
2026-05-05 01:58 52.72025 -7.08622 20438 ft 319 kts 41°
2026-05-05 01:58 52.73666 -7.06174 20112 ft 317 kts 41°
2026-05-05 01:58 52.75298 -7.03737 19784 ft 316 kts 41°
2026-05-05 01:59 52.76920 -7.01311 19459 ft 314 kts 41°
2026-05-05 01:59 52.78536 -6.98892 19142 ft 313 kts 41°
2026-05-05 01:59 52.80143 -6.96485 18812 ft 311 kts 41°
2026-05-05 01:59 52.81723 -6.94113 18496 ft 310 kts 41°
2026-05-05 02:00 52.83312 -6.91725 18174 ft 309 kts 42°
2026-05-05 02:00 52.84900 -6.89339 17855 ft 307 kts 41°
2026-05-05 02:00 52.86475 -6.86970 17539 ft 305 kts 42°
2026-05-05 02:00 52.88042 -6.84612 17224 ft 304 kts 41°
2026-05-05 02:01 52.89602 -6.82260 16906 ft 303 kts 42°
2026-05-05 02:01 52.91156 -6.79914 16595 ft 302 kts 42°
2026-05-05 02:01 52.92699 -6.77583 16281 ft 300 kts 41°
2026-05-05 02:01 52.94219 -6.75285 15975 ft 298 kts 41°
2026-05-05 02:02 52.95744 -6.72979 15664 ft 297 kts 41°
2026-05-05 02:02 52.97267 -6.70672 15359 ft 295 kts 42°
2026-05-05 02:02 52.98780 -6.68377 15055 ft 294 kts 42°
2026-05-05 02:02 53.00281 -6.66094 14747 ft 292 kts 43°
2026-05-05 02:03 53.01723 -6.63706 14489 ft 293 kts 45°
2026-05-05 02:03 53.03134 -6.61237 14266 ft 297 kts 46°
2026-05-05 02:03 53.04563 -6.58717 14016 ft 301 kts 46°
2026-05-05 02:03 53.05989 -6.56206 13772 ft 304 kts 46°
2026-05-05 02:04 53.07440 -6.53659 13526 ft 304 kts 46°
2026-05-05 02:04 53.08894 -6.51110 13270 ft 304 kts 46°
2026-05-05 02:04 53.10355 -6.48554 13018 ft 305 kts 46°
2026-05-05 02:04 53.11319 -6.46868 12859 ft 303 kts 46°
2026-05-05 02:05 53.13247 -6.43493 12513 ft 298 kts 46°
2026-05-05 02:05 53.14659 -6.41018 12293 ft 293 kts 46°
2026-05-05 02:05 53.16024 -6.38577 11975 ft 291 kts 51°
2026-05-05 02:05 53.16901 -6.35572 11634 ft 292 kts 78°
2026-05-05 02:06 53.16973 -6.32202 11292 ft 292 kts 94°
2026-05-05 02:06 53.16794 -6.28840 10955 ft 292 kts 95°
2026-05-05 02:06 53.16595 -6.25484 10651 ft 289 kts 95°
2026-05-05 02:06 53.16465 -6.23281 10500 ft 287 kts 95°
2026-05-05 02:07 53.16216 -6.18889 10181 ft 282 kts 95°
2026-05-05 02:07 53.16099 -6.16734 9983 ft 282 kts 95°
2026-05-05 02:07 53.15871 -6.12433 9590 ft 281 kts 95°
2026-05-05 02:07 53.15699 -6.09196 9291 ft 280 kts 95°
2026-05-05 02:08 53.15584 -6.07029 9089 ft 279 kts 95°
2026-05-05 02:08 53.15356 -6.02765 8707 ft 277 kts 95°
2026-05-05 02:08 53.15242 -6.00650 8517 ft 276 kts 95°
2026-05-05 02:08 53.15071 -5.97467 8237 ft 275 kts 95°
2026-05-05 02:09 53.14899 -5.94305 7979 ft 273 kts 95°
2026-05-05 02:09 53.14728 -5.91171 7739 ft 270 kts 94°
2026-05-05 02:09 53.14895 -5.87193 7564 ft 257 kts 65°
2026-05-05 02:09 53.15931 -5.84865 7408 ft 248 kts 37°
2026-05-05 02:10 53.16916 -5.83888 7302 ft 242 kts 20°
2026-05-05 02:10 53.18520 -5.83313 7069 ft 238 kts 360°
2026-05-05 02:10 53.20139 -5.83711 6881 ft 233 kts 344°
2026-05-05 02:10 53.21639 -5.84475 6831 ft 218 kts 341°
2026-05-05 02:11 53.23040 -5.85247 6725 ft 206 kts 341°
2026-05-05 02:11 53.24813 -5.86225 6401 ft 201 kts 341°
2026-05-05 02:11 53.25709 -5.86716 6209 ft 199 kts 341°
2026-05-05 02:11 53.27450 -5.87659 5781 ft 199 kts 342°
2026-05-05 02:12 53.28336 -5.88137 5580 ft 198 kts 341°
2026-05-05 02:12 53.30913 -5.89524 5074 ft 191 kts 342°
2026-05-05 02:12 53.32170 -5.90199 4794 ft 190 kts 342°
2026-05-05 02:13 53.33426 -5.90871 4501 ft 189 kts 342°
2026-05-05 02:13 53.34679 -5.91541 4238 ft 187 kts 342°
2026-05-05 02:13 53.36299 -5.92410 3978 ft 183 kts 342°
2026-05-05 02:13 53.37107 -5.92843 3860 ft 178 kts 342°
2026-05-05 02:14 53.38257 -5.93457 3667 ft 173 kts 342°
2026-05-05 02:14 53.39375 -5.94143 3497 ft 170 kts 328°
2026-05-05 02:14 53.40166 -5.95564 3338 ft 166 kts 299°
2026-05-05 02:14 53.40477 -5.97359 3193 ft 157 kts 278°
2026-05-05 02:15 53.40591 -5.99162 2983 ft 157 kts 276°
2026-05-05 02:15 53.40693 -6.00937 2871 ft 150 kts 278°
2026-05-05 02:15 53.40826 -6.02662 2794 ft 153 kts 277°
2026-05-05 02:15 53.40934 -6.04412 2642 ft 149 kts 276°
2026-05-05 02:16 53.41029 -6.06149 2424 ft 149 kts 276°
2026-05-05 02:16 53.41119 -6.07857 2226 ft 149 kts 276°
2026-05-05 02:16 53.41208 -6.09576 2025 ft 146 kts 276°
2026-05-05 02:16 53.41296 -6.11236 1829 ft 141 kts 275°
2026-05-05 02:17 53.41381 -6.12863 1654 ft 141 kts 275°
2026-05-05 02:17 53.41468 -6.14497 1466 ft 141 kts 275°
2026-05-05 02:17 53.41554 -6.16122 1280 ft 139 kts 275°
2026-05-05 02:17 53.41639 -6.17741 1096 ft 139 kts 275°
2026-05-05 02:18 53.41721 -6.19351 928 ft 139 kts 275°
2026-05-05 02:18 53.41814 -6.20964 728 ft 137 kts 275°
2026-05-05 02:18 53.41895 -6.22508 535 ft 135 kts 274°
2026-05-05 02:18 53.41971 -6.24089 373 ft 135 kts 276°
2026-05-05 02:19 53.42056 -6.25623 211 ft 127 kts 275°
2026-05-05 02:19 53.42126 -6.26897 214 ft 89 kts 276°
2026-05-05 02:19 53.42174 -6.27684 208 ft 47 kts 281°
2026-05-05 02:19 53.42240 -6.27961 217 ft 5 kts 297°
2026-05-05 02:20 53.42288 -6.28097 214 ft 20 kts 306°
2026-05-05 02:20 53.42365 -6.28045 213 ft 15 kts 95°
2026-05-05 02:20 53.42351 -6.27874 210 ft 15 kts 97°
2026-05-05 02:20 53.42342 -6.27709 210 ft 14 kts 94°
2026-05-05 02:21 53.42335 -6.27551 213 ft 13 kts 94°
2026-05-05 02:21 53.42326 -6.27400 210 ft 13 kts 95°
2026-05-05 02:21 53.42318 -6.27252 210 ft 13 kts 95°
2026-05-05 02:21 53.42309 -6.27109 210 ft 12 kts 95°
2026-05-05 02:22 53.42302 -6.26969 210 ft 12 kts 94°
2026-05-05 02:22 53.42296 -6.26833 210 ft 12 kts 95°
2026-05-05 02:22 53.42288 -6.26693 210 ft 13 kts 95°
2026-05-05 02:22 53.42278 -6.26507 215 ft 19 kts 95°
2026-05-05 02:23 53.42265 -6.26269 215 ft 21 kts 95°
2026-05-05 02:23 53.42262 -6.26032 210 ft 20 kts 77°
2026-05-05 02:23 53.42338 -6.25839 213 ft 20 kts 46°
2026-05-05 02:23 53.42433 -6.25678 211 ft 19 kts 45°
2026-05-05 02:24 53.42525 -6.25520 218 ft 19 kts 47°
2026-05-05 02:24 53.42628 -6.25425 209 ft 18 kts 343°
2026-05-05 02:24 53.42741 -6.25501 214 ft 17 kts 338°
2026-05-05 02:24 53.42850 -6.25580 219 ft 17 kts 337°
2026-05-05 02:25 53.42955 -6.25656 219 ft 17 kts 336°
2026-05-05 02:25 53.43068 -6.25738 211 ft 19 kts 340°
2026-05-05 02:25 53.43152 -6.25611 217 ft 12 kts 66°
2026-05-05 02:25 53.43158 -6.25487 212 ft 12 kts 142°
2026-05-05 02:26 53.43081 -6.25450 211 ft 12 kts 159°
2026-05-05 02:26 53.43008 -6.25399 210 ft 11 kts 156°
2026-05-05 02:26 53.42947 -6.25340 215 ft 9 kts 118°
2026-05-05 02:26 53.42959 -6.25238 214 ft 9 kts 79°
2026-05-05 02:27 53.42958 -6.25134 210 ft 9 kts 96°
2026-05-05 02:27 53.42954 -6.25034 210 ft 9 kts 93°
2026-05-05 02:27 53.42949 -6.24936 210 ft 8 kts 96°
2026-05-05 02:27 53.42944 -6.24841 210 ft 8 kts 87°
2026-05-05 02:28 53.42976 -6.24816 210 ft 5 kts
2026-05-05 02:28 53.43001 -6.24813 210 ft 0 kts